Leominster, MA

1:03 AM EST on February 21, 2017 (GMT -0500)
Fitchburg Municipal

Weather History for KFIT - January, 2013

Change the Weather History Date:

Tuesday, January 1, 2013

  Actual Average (KORH) Record (KORH)
Temperature  
Mean Temperature 26 °F -  
Max Temperature 36 °F 34 °F 58 °F (2011)
Min Temperature 16 °F 18 °F -5 °F (1936)
Degree Days  
Heating Degree Days 38    
Moisture  
Dew Point 14 °F    
Average Humidity 51    
Maximum Humidity 61    
Minimum Humidity 43    
Precipitation  
Precipitation 0.00 in - - ()
Sea Level Pressure  
Sea Level Pressure 29.81 in    
Wind  
Wind Speed 9 mph (WNW)    
Max Wind Speed 20 mph    
Max Gust Speed 31 mph    
Visibility 10 miles    
Events      
Averages and records for this station are not official NWS values.
T = Trace of Precipitation, MM = Missing Value Source: NWS Daily Summary

Daily Weather History Graph

Daily Weather History Graph

Search for Another Location

Airport or City:

Trip Planner

Search our weather history database for the weather conditions in past years. The results will help you decide how hot, cold, wet, or windy it might be!

Date:

Astronomy

Jan. 01, 2013 Rise Set
Actual Time 7:16 AM EST 4:24 PM EST
Civil Twilight 6:45 AM EST 4:56 PM EST
Nautical Twilight 6:09 AM EST 5:32 PM EST
Astronomical Twilight 5:35 AM EST 6:06 PM EST
Moon 8:58 PM EST (1/1) 9:22 AM EST (1/1)
Length of Visible Light 10h 11m
Length of Day
9h 07m
Waning Gibbous, 83% of the Moon is Illuminated
Jan 1
Waning Gibbous
Jan 4
Last Quarter
Jan 11
New
Jan 18
First Quarter
Jan 26
Full

Hourly Weather History & Observations

Time (EST) Temp. Windchill Dew Point Humidity Pressure Visibility Wind Dir Wind Speed Gust Speed Precip Events Conditions
12:52 AM 34.0 °F 29.8 °F 19.9 °F 56% 29.74 in 10.0 mi SW 4.6 mph - N/A   Overcast
1:52 AM 35.1 °F 29.3 °F 21.0 °F 57% 29.75 in 10.0 mi WSW 6.9 mph 17.3 mph N/A   Overcast
2:52 AM 35.1 °F 28.6 °F 21.9 °F 59% 29.73 in 10.0 mi SW 8.1 mph - N/A   Overcast
3:52 AM 35.1 °F 29.3 °F 23.0 °F 61% 29.71 in 10.0 mi SSW 6.9 mph - N/A   Overcast
4:52 AM 36.0 °F 29.0 °F 23.0 °F 59% 29.72 in 10.0 mi WSW 9.2 mph 19.6 mph N/A   Overcast
5:52 AM 36.0 °F 31.1 °F 23.0 °F 59% 29.73 in 10.0 mi Variable 5.8 mph - N/A   Overcast
6:52 AM 36.0 °F 29.0 °F 21.0 °F 55% 29.75 in 10.0 mi West 9.2 mph 17.3 mph N/A   Mostly Cloudy
7:52 AM 35.1 °F 25.5 °F 19.0 °F 52% 29.76 in 10.0 mi WNW 15.0 mph 28.8 mph N/A   Mostly Cloudy
8:52 AM 34.0 °F 26.0 °F 15.1 °F 46% 29.79 in 10.0 mi WNW 10.4 mph 29.9 mph N/A   Partly Cloudy
9:52 AM 34.0 °F 23.4 °F 15.1 °F 46% 29.80 in 10.0 mi West 17.3 mph 29.9 mph N/A   Mostly Cloudy
10:52 AM 32.0 °F 20.1 °F 14.0 °F 48% 29.81 in 10.0 mi WNW 19.6 mph 26.5 mph N/A   Partly Cloudy
11:52 AM 32.0 °F 20.1 °F 12.9 °F 45% 29.80 in 10.0 mi West 19.6 mph 28.8 mph N/A   Scattered Clouds
12:52 PM 32.0 °F 22.1 °F 12.0 °F 44% 29.78 in 10.0 mi WNW 13.8 mph 27.6 mph N/A   Partly Cloudy
1:52 PM 33.1 °F 23.4 °F 12.9 °F 43% 29.77 in 10.0 mi WNW 13.8 mph 23.0 mph N/A   Clear
2:52 PM 30.0 °F 18.3 °F 12.0 °F 47% 29.78 in 10.0 mi WNW 17.3 mph 31.1 mph N/A   Partly Cloudy
3:52 PM 28.9 °F 17.3 °F 10.9 °F 47% 29.80 in 10.0 mi NW 16.1 mph 23.0 mph N/A   Clear
4:52 PM 28.0 °F 17.5 °F 10.9 °F 49% 29.81 in 10.0 mi WNW 12.7 mph - N/A   Clear
5:52 PM 27.0 °F 16.7 °F 10.0 °F 49% 29.84 in 10.0 mi WNW 11.5 mph - N/A   Clear
6:52 PM 25.0 °F 14.8 °F 7.0 °F 46% 29.88 in 10.0 mi WNW 10.4 mph 20.7 mph N/A   Clear
7:52 PM 23.0 °F 13.9 °F 7.0 °F 50% 29.89 in 10.0 mi NW 8.1 mph - N/A   Clear
8:52 PM 21.0 °F 12.4 °F 7.0 °F 55% 29.90 in 10.0 mi NNW 6.9 mph - N/A   Clear
9:52 PM 19.0 °F 11.1 °F 5.0 °F 54% 29.91 in 10.0 mi NW 5.8 mph - N/A   Clear
10:52 PM 17.1 °F 10.0 °F 3.0 °F 54% 29.94 in 10.0 mi NW 4.6 mph - N/A   Clear
11:52 PM 16.0 °F 7.4 °F 1.0 °F 52% 29.94 in 10.0 mi WNW 5.8 mph - N/A   Clear